DW6198 Weather Reports


time (UTC)temp
C
wind
direction
speed
KPH
gust
KPH
rain 1hr
cm
rain 24hr
cm
rain mn
cm
humidity
%
barometer
mb
20260905170100 14 163 0.0 3.2 0.00 0.00 0.00 67 1019.2
20260905170002 14 97 0.0 1.6 0.00 0.00 0.00 67 1019.2
20260905164559 15 130 0.0 4.8 0.00 0.00 0.00 67 1019.1
20260905163057 15 117 0.0 3.2 0.00 0.00 0.00 66 1018.9
20260905161558 15 134 0.0 1.6 0.00 0.00 0.00 69 1018.9
20260905160055 15 96 0.0 1.6 0.00 0.00 0.00 69 1018.8
20260905154557 15 307 0.0 8.0 0.00 0.00 0.00 66 1018.7
20260905153053 15 146 0.0 3.2 0.00 0.00 0.00 68 1018.6
20260905151553 15 89 0.0 3.2 0.00 0.00 0.00 69 1018.4
20260905150055 16 129 0.0 4.8 0.00 0.00 0.00 68 1018.3
20260905144554 16 117 0.0 6.4 0.00 0.00 0.00 66 1018.4
20260905141543 16 150 0.0 4.8 0.00 0.00 0.00 68 1018.3
20260905140042 16 63 0.0 3.2 0.00 0.00 0.00 66 1018.3
20260905134549 16 119 0.0 6.4 0.00 0.00 0.00 65 1018.3
20260905133039 17 82 0.0 8.0 0.00 0.00 0.00 62 1018.4
20260905131542 17 133 0.0 6.4 0.00 0.00 0.00 61 1018.5
20260905130038 17 113 0.0 4.8 0.00 0.00 0.00 65 1018.6
20260905124546 19 203 0.0 6.4 0.00 0.00 0.00 57 1018.5
20260905123037 19 120 0.0 9.7 0.00 0.00 0.00 61 1018.5
20260905121536 18 285 3.2 8.0 0.00 0.00 0.00 64 1018.5
20260905120037 17 124 1.6 6.4 0.00 0.00 0.00 69 1018.5
20260905114534 17 126 0.0 1.6 0.00 0.00 0.00 67 1018.7
20260905113133 18 96 0.0 3.2 0.00 0.00 0.00 69 1018.3
20260905111531 17 108 0.0 3.2 0.00 0.00 0.00 72 1018.4
20260905110031 16 120 0.0 3.2 0.00 0.00 0.00 73 1018.4
20260905104541 18 89 0.0 8.0 0.00 0.00 0.00 70 1018.2
20260905103033 17 94 1.6 6.4 0.00 0.00 0.00 70 1018.2
20260905101529 17 94 0.0 4.8 0.00 0.00 0.00 74 1018.1
20260905100028 17 97 0.0 8.0 0.00 0.00 0.00 77 1018.2
20260905094527 15 348 0.0 4.8 0.00 0.00 0.00 81 1018.4
20260905093026 15 106 0.0 9.7 0.00 0.00 0.00 82 1018.4
20260905091526 14 87 0.0 4.8 0.00 0.00 0.00 84 1018.3
20260905090026 13 323 1.6 6.4 0.00 0.00 0.00 84 1018.5
20260905084532 14 129 0.0 1.6 0.00 0.00 0.00 87 1018.4
20260905083021 13 104 0.0 1.6 0.00 0.00 0.00 90 1018.3
20260905081520 12 214 0.0 3.2 0.00 0.00 0.00 93 1018.2
20260905080034 11 155 0.0 1.6 0.00 0.00 0.00 93 1018.0
20260905074518 11 141 0.0 1.6 0.00 0.00 0.00 93 1017.7
20260905073033 11 112 0.0 1.6 0.00 0.00 0.00 94 1017.7
20260905071516 11 99 0.0 1.6 0.00 0.00 0.00 94 1017.6
20260905070014 11 136 0.0 6.4 0.00 0.00 0.00 94 1017.5
20260905064515 11 171 0.0 3.2 0.00 0.00 0.00 94 1017.2
20260905063012 11 146 0.0 4.8 0.00 0.00 0.00 94 1017.0
20260905061510 11 91 0.0 3.2 0.00 0.00 0.00 94 1017.0
20260905060008 11 117 0.0 1.6 0.00 0.00 0.00 94 1017.0
20260905054507 11 178 0.0 8.0 0.00 0.00 0.00 94 1016.5
20260905053005 12 128 0.0 1.6 0.00 0.00 0.00 95 1016.7
20260905051503 12 323 0.0 0.0 0.00 0.00 0.00 94 1015.8
20260905050002 12 323 0.0 0.0 0.00 0.00 0.00 94 1015.8
20260905044603 12 323 0.0 4.8 0.00 0.00 0.00 94 1015.8
20260905043119 12 122 0.0 1.6 0.00 0.00 0.00 93 1015.9
20260905041558 12 153 0.0 0.0 0.00 0.00 0.00 92 1015.9
20260905040117 12 164 0.0 3.2 0.00 0.00 0.00 92 1016.1
20260905034558 12 76 0.0 1.6 0.00 0.00 0.00 92 1015.4
20260905033055 12 76 0.0 0.0 0.00 0.00 0.00 92 1015.5
20260905031552 12 76 0.0 3.2 0.00 0.00 0.00 92 1015.2
20260905030050 13 75 0.0 1.6 0.00 0.00 0.00 92 1015.2
20260905024549 13 88 0.0 1.6 0.00 0.00 0.00 92 1014.9
20260905023053 13 88 0.0 0.0 0.00 0.00 0.00 91 1015.0
20260905021549 13 88 0.0 1.6 0.00 0.00 0.00 91 1014.5
20260905020043 13 88 0.0 0.0 0.00 0.00 0.00 91 1014.4
20260905014540 13 89 0.0 0.0 0.00 0.00 0.00 90 1014.4
20260905013037 14 88 0.0 6.4 0.00 0.00 0.00 89 1014.3
20260905011536 15 135 0.0 1.6 0.00 0.00 0.00 89 1014.2
20260905010033 15 84 0.0 1.6 0.00 0.00 0.00 89 1014.5
20260905004530 15 115 0.0 1.6 0.00 0.00 0.00 88 1014.1
20260905003027 16 115 0.0 1.6 0.00 0.00 0.00 84 1013.8
20260905001529 16 115 0.0 1.6 0.00 0.00 0.00 80 1013.0
20260905000032 16 115 0.0 1.6 0.00 0.00 0.00 79 1013.1
20260904234532 16 122 0.0 0.0 0.00 0.00 0.00 82 1013.4
20260904233025 16 134 0.0 0.0 0.00 0.00 0.00 82 1012.5
20260904231518 16 135 0.0 4.8 0.00 0.00 0.00 81 1011.9
20260904230015 17 102 0.0 1.6 0.00 0.00 0.00 79 1011.9
20260904224520 18 131 0.0 0.0 0.00 0.00 0.00 79 1011.8
20260904223013 18 147 0.0 0.0 0.00 0.00 0.00 76 1011.9
20260904221507 19 148 0.0 0.0 0.00 0.00 0.00 74 1011.8
20260904220008 19 148 0.0 3.2 0.00 0.00 0.00 74 1011.8
20260904214508 19 148 0.0 0.0 0.00 0.00 0.00 73 1011.7
20260904213003 20 154 0.0 3.2 0.00 0.00 0.00 73 1011.5
20260904211505 20 141 0.0 1.6 0.00 0.00 0.00 72 1011.5
20260904210101 20 141 0.0 0.0 0.00 0.00 0.00 73 1011.4
20260904204601 20 141 0.0 0.0 0.00 0.00 0.00 72 1011.7
20260904203059 20 141 0.0 1.6 0.00 0.00 0.00 72 1011.7
20260904201559 20 119 0.0 1.6 0.00 0.00 0.00 72 1011.8
20260904200056 19 119 0.0 0.0 0.00 0.00 0.00 74 1012.0
20260904194603 19 119 0.0 0.0 0.00 0.00 0.00 75 1012.1
20260904193058 19 120 0.0 0.0 0.00 0.00 0.00 75 1012.1
20260904191554 19 74 0.0 0.0 0.00 0.00 0.00 76 1012.0
20260904190052 19 74 0.0 0.0 0.00 0.00 0.00 75 1012.2
20260904184557 20 74 0.0 0.0 0.00 0.00 0.00 75 1012.3
20260904183106 20 74 0.0 0.0 0.00 0.00 0.00 75 1012.5
20260904181552 19 74 0.0 0.0 0.00 0.00 0.00 76 1012.3
20260904180114 19 74 0.0 0.0 0.00 0.00 0.00 76 1012.4
20260904174602 19 74 0.0 0.0 0.00 0.00 0.00 77 1012.4
20260904173051 20 74 0.0 0.0 0.00 0.00 0.00 76 1012.4
20260904171554 20 74 0.0 0.0 0.00 0.00 0.00 74 1012.3